FW6045 Weather Reports


Display with metric or nautical units.
time (UTC)temp
F
wind
direction
speed
MPH
gust
MPH
rain 1hr
in
rain 24hr
in
rain mn
in
humidity
%
barometer
mb
20260906003108 87 355 2.0 4.0 0.00 0.07 0.07 66 1011.0
20260906001617 87 0 0.0 2.0 0.00 0.07 0.07 65 1010.6
20260906000108 88 352 2.0 3.0 0.00 0.07 0.07 65 1010.8
20260905234602 88 352 0.0 2.0 0.00 0.07 0.07 64 1011.2
20260905233112 88 352 2.0 3.0 0.00 0.07 0.07 64 1011.2
20260905231600 88 0 0.0 2.0 0.00 0.07 0.07 64 1011.2
20260905230106 88 352 1.0 4.0 0.00 0.07 0.07 65 1011.3
20260905224609 88 355 3.0 4.0 0.00 0.07 0.07 65 1011.2
20260905223104 89 311 1.0 4.0 0.00 0.07 0.07 64 1011.0
20260905221603 90 308 3.0 5.0 0.00 0.07 0.07 63 1011.1
20260905220105 90 301 4.0 9.0 0.00 0.07 0.07 62 1011.1
20260905214600 90 316 6.0 10.0 0.00 0.07 0.07 61 1011.0
20260905213109 90 336 6.0 11.0 0.00 0.07 0.07 61 1010.9
20260905211603 90 281 3.0 11.0 0.00 0.07 0.07 62 1011.1
20260905210113 91 321 6.0 10.0 0.00 0.07 0.07 61 1011.3
20260905204604 91 280 7.0 12.0 0.00 0.07 0.07 60 1011.4
20260905203107 90 259 5.0 10.0 0.00 0.07 0.07 61 1011.7
20260905201609 90 261 9.0 14.0 0.00 0.07 0.07 61 1011.8
20260905200152 90 254 4.0 11.0 0.00 0.07 0.07 61 1011.8
20260905194616 90 265 2.0 9.0 0.00 0.07 0.07 59 1012.0
20260905193100 89 259 4.0 9.0 0.00 0.07 0.07 61 1012.1
20260905191602 89 254 4.0 10.0 0.00 0.07 0.07 60 1012.4
20260905184611 88 227 4.0 12.0 0.00 0.07 0.07 62 1012.8
20260905183112 87 243 4.0 12.0 0.00 0.07 0.07 65 1012.8
20260905181601 86 205 3.0 12.0 0.00 0.07 0.07 66 1012.9
20260905174607 85 248 5.0 11.0 0.00 0.07 0.07 67 1013.2
20260905173100 84 254 4.0 9.0 0.00 0.07 0.07 66 1013.5
20260905171607 84 208 6.0 10.0 0.00 0.07 0.07 66 1013.4
20260905170109 83 247 2.0 7.0 0.00 0.07 0.07 68 1013.7
20260905164605 82 251 4.0 10.0 0.00 0.07 0.07 68 1014.0
20260905163104 82 169 5.0 12.0 0.00 0.07 0.07 67 1014.2
20260905161609 81 142 3.0 8.0 0.00 0.07 0.07 70 1014.2
20260905160106 80 150 5.0 12.0 0.00 0.07 0.07 70 1014.2
20260905154600 79 157 7.0 10.0 0.00 0.07 0.07 73 1014.1
20260905153102 79 194 4.0 12.0 0.00 0.07 0.07 74 1014.0
20260905151602 77 128 5.0 11.0 0.00 0.07 0.07 76 1014.0
20260905144604 76 146 3.0 8.0 0.00 0.07 0.07 79 1014.0
20260905143105 75 134 2.0 9.0 0.00 0.07 0.07 78 1014.2
20260905141601 74 123 6.0 12.0 0.00 0.07 0.07 80 1014.2
20260905140105 73 94 6.0 12.0 0.00 0.07 0.07 82 1014.4
20260905134611 72 96 4.0 13.0 0.00 0.07 0.07 85 1014.7
20260905133100 71 99 5.0 10.0 0.00 0.07 0.07 88 1015.1
20260905131605 70 111 4.0 12.0 0.00 0.07 0.07 89 1015.4
20260905124605 69 107 9.0 14.0 0.04 0.07 0.07 90 1015.7
20260905123108 70 113 10.0 14.0 0.05 0.07 0.07 90 1015.9
20260905121603 70 111 1.0 9.0 0.05 0.07 0.07 89 1016.5
20260905120105 70 155 9.0 13.0 0.05 0.07 0.07 87 1016.5
20260905114613 72 121 6.0 13.0 0.01 0.03 0.03 85 1016.2
20260905113108 73 53 10.0 30.0 0.00 0.02 0.02 83 1015.9
20260905111613 74 36 15.0 39.0 0.00 0.02 0.02 83 1015.0
20260905110104 75 35 13.0 23.0 0.00 0.02 0.02 81 1014.3
20260905104603 76 242 3.0 6.0 0.01 0.02 0.02 76 1012.8
20260905103102 77 298 2.0 7.0 0.02 0.02 0.02 76 1012.2
20260905101602 76 228 0.0 3.0 0.02 0.02 0.02 78 1012.6
20260905100107 76 233 3.0 16.0 0.02 0.02 0.02 80 1013.0
20260905094612 74 212 20.0 40.0 0.01 0.01 0.01 87 1013.3
20260905093101 74 244 10.0 14.0 0.00 0.00 0.00 88 1014.1
20260905091609 77 273 3.0 4.0 0.00 0.00 0.00 85 1012.9
20260905090103 76 272 1.0 3.0 0.00 0.00 0.00 86 1012.4
20260905084607 76 271 2.0 4.0 0.00 0.00 0.00 88 1012.7
20260905083102 75 271 2.0 4.0 0.00 0.00 0.00 90 1012.7
20260905081619 75 206 2.0 3.0 0.00 0.00 0.00 89 1012.5
20260905080107 75 205 2.0 4.0 0.00 0.00 0.00 89 1012.4
20260905074604 75 205 2.0 3.0 0.00 0.00 0.00 90 1012.3
20260905073102 75 205 2.0 4.0 0.00 0.00 0.00 90 1012.3
20260905071606 75 163 1.0 4.0 0.00 0.00 0.00 90 1012.5
20260905070105 76 163 1.0 4.0 0.00 0.00 0.00 88 1012.7
20260905064603 77 163 0.0 0.0 0.00 0.00 0.00 86 1012.9
20260905063118 77 163 0.0 2.0 0.00 0.00 0.00 85 1013.1
20260905061614 77 163 0.0 4.0 0.00 0.00 0.00 85 1013.2
20260905060105 77 163 1.0 4.0 0.00 0.00 0.00 86 1013.4
20260905054601 77 163 1.0 4.0 0.00 0.00 0.00 85 1013.6
20260905053100 78 163 1.0 4.0 0.00 0.00 0.00 83 1013.8
20260905051603 79 163 1.0 2.0 0.00 0.00 0.00 81 1014.0
20260905050106 79 0 0.0 2.0 0.00 0.00 0.00 81 1013.9
20260905044603 79 163 1.0 2.0 0.00 0.00 0.00 81 1013.9
20260905043119 79 163 3.0 5.0 0.00 0.00 0.00 80 1014.0
20260905041602 79 163 2.0 4.0 0.00 0.00 0.00 80 1014.0
20260905040120 79 163 2.0 4.0 0.00 0.00 0.00 80 1014.0
20260905034602 79 0 0.0 1.0 0.00 0.00 0.00 81 1014.2
20260905033104 79 0 0.0 2.0 0.00 0.00 0.00 81 1014.1
20260905031610 79 163 1.0 4.0 0.00 0.00 0.00 81 1014.0
20260905030106 80 163 4.0 5.0 0.00 0.00 0.00 80 1013.9
20260905024605 80 146 2.0 3.0 0.00 0.00 0.00 79 1014.0
20260905023107 80 0 0.0 3.0 0.00 0.00 0.00 78 1014.0
20260905021605 80 67 2.0 4.0 0.00 0.00 0.00 78 1014.0
20260905014604 80 66 0.0 4.0 0.00 0.00 0.00 78 1013.9
20260905013105 80 40 5.0 10.0 0.00 0.00 0.00 78 1013.8
20260905011603 81 67 5.0 10.0 0.00 0.00 0.00 77 1013.8
20260905010107 82 63 4.0 9.0 0.00 0.00 0.00 74 1013.7
20260905004613 83 42 4.0 6.0 0.00 0.00 0.00 73 1013.5